FW1987 Weather Reports


Display with metric or nautical units.
time (UTC)temp
F
wind
direction
speed
MPH
gust
MPH
rain 1hr
in
rain 24hr
in
rain mn
in
humidity
%
barometer
mb
20260507013103 56 142 0.0 0.0 0.00 0.37 0.00 95 1009.7
20260507011505 56 142 0.0 0.0 0.00 0.37 0.00 95 1009.6
20260507010031 56 143 0.0 0.0 0.00 0.37 0.00 95 1009.5
20260507004539 56 143 0.0 0.0 0.00 0.37 0.00 95 1009.7
20260507003104 56 143 0.0 0.0 0.00 0.37 0.00 95 1009.6
20260507001517 57 142 0.0 0.0 0.00 0.37 0.00 95 1009.7
20260507000034 57 143 0.0 0.0 0.00 0.37 0.00 95 1009.6
20260506234608 57 143 0.0 0.0 0.00 0.37 0.00 95 1009.7
20260506233032 58 142 0.0 0.0 0.00 0.37 0.00 95 1009.7
20260506231601 58 143 0.0 0.0 0.00 0.37 0.00 95 1009.7
20260506230023 58 143 0.0 0.0 0.00 0.37 0.00 95 1009.6
20260506224549 58 142 0.0 0.0 0.00 0.37 0.00 95 1009.5
20260506223059 58 142 0.0 0.0 0.00 0.37 0.00 95 1009.6
20260506221516 58 142 0.0 0.0 0.00 0.37 0.00 95 1009.6
20260506220045 58 143 0.0 0.0 0.00 0.37 0.00 95 1009.6
20260506214515 58 143 0.0 0.0 0.00 0.37 0.37 94 1009.4
20260506213037 58 142 0.0 0.0 0.00 0.37 0.37 94 1009.4
20260506211507 59 142 0.0 0.0 0.00 0.37 0.37 94 1009.4
20260506210017 59 143 0.0 0.0 0.00 0.37 0.37 94 1009.3
20260506204552 59 142 0.0 0.0 0.00 0.37 0.37 94 1009.3
20260506203021 60 143 0.0 0.0 0.00 0.37 0.37 93 1009.2
20260506201536 60 143 0.0 0.0 0.00 0.37 0.37 93 1009.2
20260506200056 60 142 0.0 0.0 0.00 0.37 0.37 93 1009.0
20260506194521 60 143 0.0 0.0 0.00 0.37 0.37 93 1008.8
20260506193045 61 142 0.0 0.0 0.00 0.37 0.37 92 1008.6
20260506191556 61 143 0.0 0.0 0.00 0.37 0.37 92 1008.6
20260506190026 61 143 0.0 0.0 0.00 0.37 0.37 92 1008.4
20260506184524 61 143 0.0 0.0 0.00 0.37 0.37 91 1008.3
20260506183042 62 143 0.0 0.0 0.00 0.37 0.37 90 1008.1
20260506181620 62 103 0.0 0.0 0.00 0.37 0.37 90 1007.8
20260506180026 63 103 0.0 0.0 0.00 0.37 0.37 90 1007.9
20260506174528 63 103 0.0 1.0 0.00 0.38 0.37 90 1007.9
20260506173116 63 199 0.0 0.0 0.00 0.38 0.37 89 1007.6
20260506171524 63 199 0.0 0.0 0.00 0.38 0.37 90 1007.6
20260506170044 63 199 0.0 0.0 0.00 0.38 0.37 89 1007.5
20260506164516 63 215 0.0 0.0 0.00 0.38 0.37 88 1007.6
20260506163050 63 207 0.0 1.0 0.00 0.38 0.37 87 1007.6
20260506161502 63 208 0.0 0.0 0.00 0.38 0.37 87 1007.7
20260506160052 64 207 0.0 0.0 0.00 0.38 0.37 85 1007.7
20260506154514 64 215 0.0 0.0 0.00 0.38 0.37 86 1007.8
20260506153029 64 215 0.0 0.0 0.00 0.38 0.37 86 1007.7
20260506151546 65 215 0.0 0.0 0.00 0.38 0.37 89 1007.7
20260506150029 64 215 0.0 1.0 0.00 0.38 0.37 89 1007.7
20260506144550 63 232 0.0 0.0 0.00 0.38 0.37 91 1007.8
20260506143019 63 196 0.0 0.0 0.00 0.38 0.37 92 1007.9
20260506141542 63 195 0.0 1.0 0.00 0.38 0.37 94 1007.9
20260506140100 62 194 0.0 0.0 0.02 0.38 0.37 94 1007.9
20260506134522 62 194 0.0 1.0 0.07 0.38 0.37 95 1007.9
20260506133037 62 173 0.0 0.0 0.10 0.38 0.37 95 1008.1
20260506131558 62 175 0.0 0.0 0.14 0.38 0.37 95 1008.4
20260506130014 61 175 0.0 0.0 0.33 0.36 0.35 94 1008.5
20260506124527 61 65 0.0 1.0 0.28 0.31 0.30 93 1008.6
20260506123044 61 222 0.0 0.0 0.24 0.28 0.27 92 1008.5
20260506121559 62 238 0.0 0.0 0.20 0.24 0.23 90 1008.5
20260506120016 63 213 0.0 0.0 0.00 0.03 0.02 86 1008.6
20260506114526 63 213 0.0 5.0 0.00 0.03 0.02 86 1008.7
20260506113040 63 214 0.0 3.0 0.00 0.03 0.02 86 1008.9
20260506111503 62 233 0.0 3.0 0.00 0.03 0.02 87 1009.1
20260506110018 62 234 0.0 0.0 0.00 0.03 0.02 86 1009.1
20260506104536 62 232 0.0 0.0 0.00 0.04 0.02 88 1009.3
20260506103002 61 226 0.0 5.0 0.00 0.04 0.02 90 1009.4
20260506101523 61 232 1.0 6.0 0.00 0.04 0.02 90 1009.6
20260506100036 61 199 0.0 0.0 0.00 0.04 0.02 91 1009.6
20260506094620 61 124 0.0 0.0 0.00 0.06 0.02 91 1009.6
20260506093101 61 0.0 0.0 0.00 0.06 0.02 90 1009.6
20260506091516 61 124 0.0 0.0 0.00 0.06 0.02 90 1009.6
20260506090033 61 124 0.0 0.0 0.00 0.06 0.02 92 1009.5
20260506084549 60 124 0.0 0.0 0.00 0.06 0.02 93 1009.4
20260506083005 60 124 0.0 0.0 0.00 0.06 0.02 93 1009.2
20260506081522 60 113 0.0 0.0 0.00 0.06 0.02 94 1009.3
20260506073121 58 109 0.0 0.0 0.00 0.06 0.02 95 1009.4
20260506071557 58 114 0.0 0.0 0.00 0.06 0.02 95 1009.4
20260506061517 57 114 0.0 0.0 0.01 0.06 0.02 95 1009.3
20260506044615 55 114 0.0 0.0 0.01 0.05 0.02 95 1009.6
20260506043021 55 114 0.0 0.0 0.02 0.05 0.02 95 1009.5
20260506041541 55 120 0.0 0.0 0.02 0.05 0.02 95 1009.4
20260506040059 55 120 0.0 0.0 0.02 0.05 0.02 95 1009.3
20260506034525 55 120 0.0 0.0 0.01 0.04 0.01 95 1009.4
20260506033041 55 120 0.0 0.0 0.00 0.03 0.00 95 1009.6
20260506031559 55 119 0.0 0.0 0.00 0.03 0.00 95 1009.9
20260506030020 55 120 0.0 0.0 0.00 0.03 0.00 95 1009.8
20260506024541 55 119 0.0 0.0 0.00 0.03 0.00 95 1009.9
20260506023047 55 119 0.0 0.0 0.00 0.03 0.00 95 1010.2
20260506021522 55 120 0.0 0.0 0.00 0.03 0.00 94 1010.1
20260506020039 55 120 0.0 0.0 0.00 0.03 0.00 94 1010.2
20260506014558 55 119 0.0 0.0 0.00 0.03 0.00 94 1010.5